Torna al catalogo

GLOBAL-34

AttivoComunicazioniVLEO
NORAD 68098·PAYLOAD·🇺🇸 United States

Lanciato Mar 5, 2026 da Rocket Lab Launch Complex 1

Loading…

Prossimi Passaggi (prossime 24 ore)

TLE

AggiornatoSource: Space-Track

Epoca: Sep 14, 2026, 04:41 UTC

1 68098U 26043A   26257.19532199  .00008055  00000-0  24598-3 0  9996
2 68098  42.0208  65.5313 0002971 227.0670 132.9920 15.34128007 29496

Traccia GLOBAL-34 in tempo reale con AllMySat

Download on the App Store